Location: Elm Mott Branch
(32.1549°N, 97.5139°W)
Time: 09:59:01
(UTC+00:00)

Cosmos 1302 Rocket - Pass Details

Date: 18 November 2025
Orbit: 752 x 772 km, 74.0° (Epoch: 07 December)

Event Time Altitude Azimuth Distance (km) Brightness Sun altitude
Rises 12:22:11 0° 213° (SSW) 3,187 7.0 -8.8°
Reaches altitude 10° 12:24:40 10° 221° (SW) 2,266 6.2 -8.3°
Maximum altitude 12:29:28 40° 291° (WNW) 1,096 4.4 -7.3°
Drops below altitude 10° 12:34:19 10° 0° (N) 2,280 6.3 -6.3°
Sets 12:36:50 0° 8° (N) 3,210 7.1 -5.8°
